Theta_e
322 321 320 320 320 319 318 318 317 316 315 315 315 316 316 316 316 317 316 317 321 325 324 323 322 320 318 315 312 311 311 311
321 320 320 319 319 318 317 316 314 314 315 315 314 313 317 316 315 317 318 319 322 324 326 324 320 320 316 313 311 312 312 312
321 321 319 319 318 318 318 316 314 313 313 315 314 315 319 319 318 320 320 322 323 324 325 323 321 318 315 313 312 312 312 312
323 322 321 319 318 318 317 317 317 316 315 315 319 322 323 323 322 322 320 324 325 325 325 323 321 318 315 313 312 312 313 312
324 324 322 321 319 319 317 317 316 316 317 321 323 323 325 325 324 321 324 325 325 325 325 323 322 318 315 313 312 313 314 312
325 325 324 322 319 319 319 321 321 320 321 323 325 324 324 325 324 324 326 326 326 325 324 323 321 318 315 313 313 313 314 311
324 324 324 324 321 321 323 324 325 324 326 326 327 323 325 326 326 327 327 327 325 323 324 322 320 317 315 314 313 313 313 312
325 324 324 324 323 323 323 323 323 327 328 327 328 325 324 326 327 327 327 326 324 323 323 323 319 317 315 314 313 313 312 310
325 325 325 325 324 323 323 323 323 327 328 329 327 328 326 326 327 327 326 326 325 323 323 322 319 317 315 314 313 311 310 309
325 324 326 327 326 325 323 323 325 327 328 329 329 328 327 328 327 327 326 325 324 322 322 319 318 316 315 312 310 308 308 304
325 325 325 326 326 326 327 327 327 327 327 329 330 330 330 328 328 327 326 324 322 321 319 318 316 313 310 309 310 308 304 304
321 326 325 325 326 327 327 327 327 328 327 329 331 330 330 330 330 327 325 323 322 320 318 317 315 311 313 311 309 308 308 305
320 321 323 326 326 326 327 328 328 329 329 330 332 331 330 330 330 327 324 323 322 320 318 316 313 314 311 309 308 308 305 303
319 321 322 327 327 327 327 329 329 329 330 331 331 331 330 328 328 326 324 323 320 318 316 315 314 311 308 308 307 307 304 303
318 320 321 323 327 328 329 330 330 330 330 330 330 329 329 327 327 325 323 320 320 317 315 313 311 309 308 308 306 303 302 302
316 320 321 322 326 329 330 331 331 331 329 327 326 327 325 324 321 323 321 320 316 314 312 311 308 308 307 305 302 302 301 298
318 317 323 325 328 326 326 326 326 326 320 318 318 318 319 318 316 315 313 311 312 311 309 307 307 306 303 302 302 299 298 296
319 321 328 326 323 320 318 316 317 315 314 312 313 312 312 311 310 309 310 309 308 307 307 307 303 301 301 299 297 297 295 294
320 325 321 318 317 316 314 314 313 313 312 312 312 312 310 308 308 307 306 306 307 306 303 301 301 301 297 296 295 294 293 292
Wind_Speed
12 13 17 25 30 33 39 38 38 38 33 28 29 25 20 20 23 18 18 15 15 21 20 22 22 21 18 16 16 15 14 11
17 15 15 16 18 24 29 32 37 35 31 32 33 30 24 29 25 20 23 22 21 24 22 23 22 19 19 19 18 13 12 11
19 22 22 22 25 23 25 34 37 38 36 33 29 29 22 24 27 28 27 27 26 25 22 26 22 20 21 20 20 16 11 11
16 22 26 26 26 30 29 32 37 38 36 32 24 24 27 30 33 33 30 27 27 25 23 26 24 24 26 25 21 18 13 15
17 21 26 29 31 31 32 34 41 39 37 30 27 25 22 27 33 32 28 29 29 27 27 26 25 25 28 27 23 20 14 16
21 21 29 32 36 34 34 33 33 36 36 35 30 31 32 29 30 29 27 29 27 27 29 26 27 30 27 26 25 23 17 17
21 30 30 31 37 37 35 34 35 37 38 38 36 33 32 31 29 31 30 30 27 27 29 26 28 29 26 26 26 26 21 17
21 21 26 32 35 36 37 36 31 39 40 39 41 36 38 35 34 34 34 33 30 31 31 31 28 29 28 29 31 29 23 16
24 24 32 36 38 38 37 37 37 35 40 40 41 36 37 39 37 37 38 38 35 34 35 32 28 31 29 31 31 24 20 13
24 23 33 36 40 43 46 41 37 35 37 41 42 43 38 35 36 38 38 37 33 27 31 32 29 31 28 30 22 13 9 12
19 20 31 36 40 43 42 43 42 44 39 37 38 41 41 39 33 37 39 33 28 23 26 31 28 29 26 15 10 10 11 11
12 23 31 37 38 38 40 41 39 36 35 37 38 40 42 39 34 34 32 30 27 25 29 31 32 30 26 26 20 18 13 11
8 5 18 31 36 35 36 37 38 36 36 37 40 42 42 38 30 30 32 30 28 28 28 32 32 31 30 27 22 18 15 18
8 6 5 23 30 30 29 34 38 36 31 38 35 36 36 29 28 27 30 29 27 25 28 32 31 29 27 23 21 20 18 15
7 7 8 12 29 25 27 28 32 35 39 32 30 32 35 29 30 33 30 28 26 29 32 32 29 25 23 19 17 15 15 17
6 8 8 9 17 26 29 28 27 25 22 24 28 32 30 30 33 31 29 28 33 33 29 26 25 23 18 16 16 15 15 13
8 7 6 5 14 20 23 26 26 26 25 24 25 24 25 26 27 28 31 32 29 28 24 24 21 14 12 13 13 17 12 10
7 7 8 12 17 24 24 26 24 23 25 22 22 23 24 24 25 26 28 29 28 23 21 20 15 15 12 14 12 9 6 6
8 8 12 14 22 25 27 27 27 26 24 22 21 21 22 22 24 25 25 27 21 19 17 16 13 12 15 12 8 5 4 4
Wind_Direction
138 141 143 152 159 159 150 151 152 154 158 164 154 156 168 192 197 188 182 206 206 213 189 188 184 182 181 182 185 192 195 190
151 154 160 159 163 156 154 161 165 169 165 163 171 180 188 186 191 201 223 232 223 212 194 192 186 191 187 190 191 182 168 189
168 170 169 173 164 162 165 170 175 182 183 186 179 189 202 212 213 216 218 220 215 200 200 192 196 188 192 195 191 190 198 202
179 182 175 177 179 183 178 179 179 183 183 187 201 211 213 213 215 216 217 218 214 199 199 199 198 193 197 199 198 199 190 195
181 178 175 180 191 190 184 182 179 180 188 204 211 206 199 206 212 215 214 213 216 207 200 207 203 198 199 198 197 203 197 191
179 182 183 182 188 192 192 195 197 201 204 206 214 209 205 207 212 209 210 213 216 210 200 207 200 204 204 201 197 205 206 177
182 184 186 191 190 195 200 203 203 204 206 210 216 212 204 202 205 205 206 210 213 208 204 201 207 204 205 204 201 202 198 195
182 185 188 193 194 197 199 206 205 203 207 209 215 214 209 202 205 202 201 203 211 212 210 208 210 209 203 205 199 194 190 199
186 190 191 195 196 198 202 208 215 211 212 214 215 213 210 210 210 209 208 212 217 220 214 214 219 209 204 196 191 192 186 199
191 191 193 194 194 197 200 205 212 212 211 214 216 217 215 212 211 210 212 217 220 221 216 209 217 203 199 183 176 185 187 188
197 195 197 198 200 201 199 201 205 209 214 220 212 215 217 214 210 207 213 212 214 208 207 211 199 184 165 162 165 178 181 221
172 202 205 200 204 203 202 204 208 210 212 214 206 211 213 212 211 206 205 205 200 198 204 200 190 174 193 196 181 188 219 217
188 196 176 198 204 202 201 203 204 209 207 211 208 210 212 214 204 200 203 200 201 203 197 194 182 193 192 187 193 215 207 214
187 165 147 174 197 205 202 197 201 203 207 213 215 203 202 197 195 198 200 194 193 189 189 189 191 188 190 202 212 211 214 225
191 182 178 164 184 195 192 192 197 197 207 211 198 191 193 193 197 190 194 190 190 192 187 190 188 192 195 201 208 208 215 230
197 190 187 176 149 162 185 179 183 191 179 174 181 186 189 189 184 182 189 192 188 182 180 185 190 187 195 207 199 215 228 196
128 113 155 156 113 120 135 148 158 167 162 156 165 165 171 178 179 179 177 176 176 174 177 180 180 191 190 207 226 195 203 222
119 85 113 116 118 126 123 130 143 136 132 138 148 159 162 168 172 171 170 171 168 169 174 176 177 185 193 212 203 216 238 266
96 104 99 97 118 121 126 133 130 131 133 143 157 165 169 170 169 167 168 165 162 163 169 173 184 192 183 187 188 202 234 262